Погода в Кашине

Поиск расширенной информации на нашем сайте:

Полезная информация:

Новости сайта



02.01.2020
Опубликован Долгосрочный прогноз погоды по городам России и ближнего зарубежья на январь 2020 года.
Карты: Прогноз на январь и февраль 2020 года, Сравнение прогнозируемой аномалии приземной температуры воздуха на январь 2020 года по разным моделям.




Погода в Кашине - сегодня

Время (UTC), дата Ветер
(°,м/с) 
Видим.   Явления Облачность Т
(°С)
Тd
(°С)
f(%) Тe
(°С)
Pmin
(гПа)
dP
(гПа)
Po
(мм)
O2
(г/м3)
Тmin Tmax R s Состояние
почвы
12 29.11.20 090 (В) 20000 м  {снег}  9/0 средняя 
[Ac As]
+0.1 -0.1 99 -2  1030.7  -0.2  760  306           
15 29.11.20 110 (В) 20000 м    9/9 600 м 
[Sc]
+0.6 +0.3 98 1030.6  760  305         
18 29.11.20 120 (ЮВ) 20000 м    9/9 600 м 
[Sc]
+1.2 +0.8 97 +1  1030.1  -0.4  759  305    +1.3     
21 29.11.20 120 (ЮВ) 10 км  слаб. дождь  10/10 300 м 
[Frnb|Ns]
+1.6 +1.3 98 1030.2  0.1  759  304           
00 30.11.20 130 (ЮВ) 20000 м  в посл. час дождь  9/9 600 м 
[Sc]
+1.8 +1.6 99 1029.8  -0.4  759  304           
03 30.11.20 130 (ЮВ) 20000 м    9/9 600 м 
[Sc]
+1.9 +1.1 94 1029.2  -0.6  759  303  +0.6       
06 30.11.20 130 (ЮВ) 50000 м    9/9 600 м 
[Sc]
+1 -0.1 92 -1  1029.4  0.1  759  305  +0.6    мокрый или
старый снег
50-90% 
09 30.11.20 150 (ЮВ) 20000 м    9/9 600 м 
[Sc]
+0.8 -0.7 90 -1  1029.2  -0.2  759  305           
12 30.11.20 150 (ЮВ) 20000 м    9/9 600 м 
[Sc]
+0.5 -1.1 89 -1  1028.6  -0.5  758  305           
15 30.11.20 150 (ЮВ) 10 км  слаб. снег  10/10 300 м 
[Frnb|Ns]
+0.1 -0.4 96 -2  1028.2  -0.4  758  305      0.6     
18 30.11.20 150 (ЮВ) 4000 м  слаб. снег  10/10 300 м 
[Frnb|Ns]
+0.1 -0.2 98 -1  1028.3  758  305    +1     
21 30.11.20 160 (Ю) 20000 м  в посл. час снег  9/9 600 м 
[Sc]
-0.2 -0.4 99 -2  1028.4  0.1  758  306           
00 01.12.20 160 (Ю) 4000 м  слаб. снег  10/10 300 м 
[Frnb|Ns]
-0.5 -0.6 99 -1  1028.3  -0.1  758  306           
03 01.12.20 160 (Ю) 4000 м  слаб. снег  10/10 300 м 
[Frnb|Ns]
-0.7 -0.8 99 -2  1028.6  0.2  758  306  -0.7       
06 01.12.20 170 (Ю) 10 км  слаб. снег  10/10 300 м 
[Frnb|Ns]
-0.7 -1 98 -2  1029.5  0.9  759  307  -0.8    равномерный
сухой снег
100% 
09 01.12.20 170 (Ю) 10 км  слаб. снег  10/0 средняя 
[As op]
-0.6 -1 97 -1  1030.6  1.1  760  307           
12 01.12.20 160 (Ю) 10 км  слаб. снег  10/0 средняя 
[As op]
-1 -1.4 97 1031.4  0.7  760  308           
15 01.12.20 180 (Ю) 20000 м  {снег}  9/9 600 м 
[Sc]
-1.5 -1.9 97 -2  1032.8  1.4  761  309         
21 01.12.20 220 (ЮЗ) 20000 м    9/9 600 м 
[Sc]
-1.9 -2.2 98 -1  1035.1  1.1  763  310           
00 02.12.20 180 (Ю) 10 км    9/9 600 м 
[Sc]
-1.8 -2.1 98 -1  1035.6  0.5  763  310           
03 02.12.20 тихо ()   10 км    9/9 600 м 
[Sc]
-1.9 -2.1 99 -2  1036  0.5  764  310  -1.9         
06 02.12.20 170 (Ю) 20000 м    9/9 600 м 
[Sc]
-1.8 -2 99 -1  1036.6  0.6  764  310  -1.9      равномерный
сухой снег
100% 
09 02.12.20 170 (Ю) 20000 м    10/10 300 м 
[St]
-1.3 -1.9 96 -1  1036.9  0.3  764  310           
12 02.12.20 150 (ЮВ) 20000 м    10/10 300 м 
[St]
-1.6 -2.2 96 -1  1036.6  -0.4  764  310           
15 02.12.20 140 (ЮВ) 20000 м    10/10 300 м 
[St]
-2.1 -2.6 96 -2  1036.3  -0.1  764  310           
Время (UTC), дата Ветер
(°,м/с) 
Видим.   Явления Облачность Т
(°С)
Тd
(°С)
f(%) Тe
(°С)
Pmin
(гПа)
dP
(гПа)
Po
(мм)
O2
(г/м3)
Тmin Tmax R s Состояние
почвы

Для получения пояснительной информации подведите курсор к названию столбца.

ПОГОДА в Кашине - архив

Всё, что Вы хотите узнать о погоде в Кашине - удобно и подробно!

Выберите нужную дату (начиная с 1 января 2019* года) и нажмите кнопку "Найти".
Будут отображены архивные сводки погоды по пункту Кашин, начиная с указанной даты.


Отображать данные в формате CSV (для использования в таблицах Excel)


Внимание! Наш архив погоды предназначен исключительно для личного некоммерческого использования в познавательных целях. Если Вам необходимы официальные справки о состоянии погоды (для производственных, юридических, коммерческих и т.п. целей), обращайтесь в органы Росгидромета.

*Примечание: данная дата относится к архиву по метеостанциям СССР (Россия, СНГ, Балтия).
Архив по метеостанциям Зарубежной Европы и Азии (кроме Китая) хранится 10 дней, по другим регионам земного шара (Китай, Африка, Америка, Австралия, Океания) - 1 день.

Кашин - район местоположения метеостанции


Название, широта, долгота, высота метеостанции:
Кашин 57.3°ш. 37.6°д. 138 м над ур. моря [Российская Федерация]

Дополнительная информация

В oтличие oт бoльшинства пoгoдных сайтoв мы публикуем пoдрoбную метеoинфoрмацию в детальнoм прoфессиoнальнoм фoрмате.

Характеристики температуры и влажнoсти вoздуха измеряются на высoте 2 м в тени вдали oт зданий и деревьев.
Скoрoсть ветра измеряется на высoте 10 м (на урoвне рoста челoвека скoрoсть ветра ниже в 1.5-2 раза). Если метеoстанция нахoдится в гoрoде или в лесу, тo скoрoсть ветра занижена на 2-4 м/с пo сравнению с oткрытым местoм. Скoрoсть ветра над акватoриями крупных рек и oзёр, а также на вершинах хoлмoв на 2-5 м/с выше, чем в oбычных услoвиях.
Атмoсфернoе давление в разных тoчках местнoсти мoжет значительнo oтличаться oт давления на метеoстанции, в зависимoсти oт услoвий рельефа (при пoдъёме на 10 м давление пoнижается примернo на 1 мм рт.ст.).